Data for 11/26/2017

Time Sea-Level Adjusted Pressure Absolute Pressure Temperature Relative Humidity Dew Point   
(mb) (inHg) (mb) (inHg) (C) (F) (%) (C) (F)
00:05 1019 30.09 848 25.04 4.2 39.5 55 -4.1 24.5
00:10 1019 30.09 849 25.07 4.5 40 55 -3.9 25
00:15 1019 30.09 848 25.04 4.6 40.3 54 -4 24.7
00:20 1019 30.09 848 25.04 4.8 40.6 55 -3.4 25.8
00:25 1019 30.09 848 25.04 4.5 40.2 55 -3.7 25.3
00:30 1019 30.09 848 25.04 5 41 54 -3.5 25.7
00:35 1019 30.09 848 25.04 5.2 41.4 52 -3.7 25.3
00:40 1019 30.09 848 25.04 4.7 40.4 58 -3 26.6
00:45 1019 30.09 848 25.04 4.3 39.7 59 -3.1 26.5
00:50 1019 30.09 848 25.04 4.6 40.3 57 -3.2 26.2
00:55 1019 30.09 848 25.04 5 41.1 55 -3.2 26.3
01:00 1019 30.09 848 25.04 5.7 42.2 53 -3.1 26.4
01:05 1019 30.09 848 25.04 6.2 43.1 52 -3 26.6
01:10 1019 30.09 848 25.04 6.4 43.5 52 -2.8 26.9
01:15 1018 30.06 848 25.04 6.5 43.7 52 -2.7 27.2
01:20 1018 30.06 848 25.04 6.3 43.3 54 -2.4 27.7
01:25 1018 30.06 848 25.04 6 42.8 53 -2.8 27
01:30 1018 30.06 848 25.04 5.8 42.4 55 -2.5 27.5
01:35 1018 30.06 848 25.04 5.2 41.3 58 -2.4 27.6
01:40 1019 30.09 848 25.04 5.1 41.2 55 -3.3 26.1
01:45 1019 30.09 848 25.04 6.1 43.1 52 -2.9 26.7
01:50 1018 30.06 848 25.04 6.2 43.1 52 -2.9 26.9
01:55 1018 30.06 848 25.04 5.9 42.6 54 -2.6 27.3
02:00 1018 30.06 848 25.04 5.7 42.2 54 -2.9 26.8
02:05 1019 30.09 848 25.04 5.6 42.2 54 -2.9 26.8
02:10 1019 30.09 848 25.04 6.1 42.9 54 -2.6 27.3
02:15 1019 30.09 848 25.04 6 42.8 52 -3 26.5
02:20 1019 30.09 848 25.04 6.2 43.2 52 -3 26.6
02:25 1019 30.09 848 25.04 6.7 44 50 -2.9 26.8
02:30 1019 30.09 848 25.04 6.5 43.7 53 -2.3 27.8
02:35 1019 30.09 848 25.04 6.1 43 53 -2.8 27
02:40 1019 30.09 848 25.04 6.6 44 49 -3.2 26.2
02:45 1019 30.09 848 25.04 7 44.6 52 -2.3 27.9
02:50 1019 30.09 848 25.04 6.4 43.5 52 -2.7 27.1
02:55 1019 30.09 848 25.04 6.5 43.7 51 -2.9 26.8
03:00 1019 30.09 848 25.04 6.7 44 51 -2.7 27.1
03:05 1018 30.06 848 25.04 6.7 44 53 -2.2 28.1
03:10 1018 30.06 848 25.04 6 42.9 55 -2.4 27.6
03:15 1018 30.06 848 25.04 6 42.8 55 -2.3 27.9
03:20 1018 30.06 848 25.04 5.9 42.7 57 -2 28.4
03:25 1019 30.09 848 25.04 5.8 42.5 56 -2.4 27.8
03:30 1018 30.06 848 25.04 6.1 43 51 -3.2 26.2
03:35 1018 30.06 848 25.04 6.7 44 50 -2.9 26.8
03:40 1018 30.06 848 25.04 7.3 45.1 50 -2.3 27.8
03:45 1018 30.06 848 25.04 7.1 44.7 51 -2.5 27.5
03:50 1018 30.06 848 25.04 6.7 44.1 51 -2.7 27.1
03:55 1018 30.06 848 25.04 6.5 43.7 54 -2.2 28
04:00 1018 30.06 848 25.04 6.5 43.7 50 -3 26.5
04:05 1018 30.06 848 25.04 6.9 44.4 52 -2.4 27.8
04:10 1018 30.06 848 25.04 6.8 44.2 51 -2.7 27.1
04:15 1018 30.06 847 25.01 6.9 44.4 54 -1.9 28.6
04:20 1018 30.06 847 25.01 7.2 44.9 51 -2.2 28
04:25 1018 30.06 847 25.01 7 44.6 52 -2.1 28.2
04:30 1018 30.06 847 25.01 6.4 43.5 53 -2.3 27.8
04:35 1018 30.06 847 25.01 6.3 43.4 52 -2.7 27.1
04:40 1018 30.06 847 25.01 6.5 43.8 54 -2.2 28.1
04:45 1018 30.06 847 25.01 6.1 43 55 -2.2 28
04:50 1018 30.06 847 25.01 6.1 43.1 55 -2.3 27.9
04:55 1018 30.06 847 25.01 6 42.9 54 -2.6 27.4
05:00 1018 30.06 847 25.01 6.6 43.9 52 -2.5 27.5
05:05 1018 30.06 847 25.01 6.7 44.1 51 -2.8 27
05:10 1018 30.06 847 25.01 6.6 43.8 50 -3 26.6
05:15 1018 30.06 847 25.01 6.9 44.4 52 -2.4 27.7
05:20 1018 30.06 847 25.01 6.9 44.4 49 -3.2 26.3
05:25 1018 30.06 847 25.01 7.2 45 48 -3.1 26.5
05:30 1018 30.06 847 25.01 7.4 45.2 47 -3.2 26.2
05:35 1018 30.06 847 25.01 7.3 45.1 49 -2.6 27.3
05:40 1018 30.06 847 25.01 7.1 44.7 47 -3.3 26
05:45 1018 30.06 847 25.01 7.2 45 49 -2.8 27
05:50 1018 30.06 847 25.01 6.5 43.7 52 -2.7 27.2
05:55 1017 30.03 847 25.01 6.4 43.6 51 -2.9 26.7
06:00 1017 30.03 847 25.01 6.3 43.4 51 -3.1 26.4
06:05 1017 30.03 846 24.98 6.6 43.9 49 -3.2 26.2
06:10 1017 30.03 846 24.98 6.7 44.1 48 -3.6 25.5
06:15 1017 30.03 847 25.01 6.8 44.2 48 -3.4 25.8
06:20 1017 30.03 847 25.01 6.9 44.4 48 -3.4 25.9
06:25 1017 30.03 846 24.98 7.2 44.9 47 -3.4 25.9
06:30 1017 30.03 847 25.01 6.9 44.5 47 -3.7 25.3
06:35 1017 30.03 847 25.01 7.4 45.4 44 -4 24.7
06:40 1017 30.03 847 25.01 7.8 46 42 -4.3 24.3
06:45 1017 30.03 847 25.01 8 46.4 42 -4.1 24.6
06:50 1017 30.03 847 25.01 7.9 46.2 40 -4.9 23.1
06:55 1018 30.06 847 25.01 8.2 46.7 39 -5 23
07:00 1018 30.06 847 25.01 8.6 47.5 36 -5.6 21.9
07:05 1017 30.03 847 25.01 9.1 48.5 35 -5.4 22.3
07:10 1017 30.03 847 25.01 9.1 48.4 36 -5.1 22.7
07:15 1017 30.03 846 24.98 8.7 47.7 39 -4.4 24
07:20 1017 30.03 846 24.98 7.7 45.9 44 -3.9 25
07:25 1017 30.03 846 24.98 7.2 44.9 43 -4.5 23.9
07:30 1017 30.03 846 24.98 7.6 45.7 42 -4.4 24.1
07:35 1017 30.03 846 24.98 7.7 45.8 41 -4.7 23.6
07:40 1017 30.03 846 24.98 8 46.5 40 -4.7 23.5
07:45 1017 30.03 846 24.98 8.3 47 37 -5.5 22.1
07:50 1017 30.03 846 24.98 9 48.3 34 -6.1 21.1
07:55 1017 30.03 846 24.98 9.7 49.5 32 -6.2 20.8
08:00 1017 30.03 846 24.98 10.2 50.4 33 -5.4 22.2
08:05 1017 30.03 846 24.98 10.3 50.5 33 -5.3 22.4
08:10 1017 30.03 846 24.98 9.8 49.6 35 -5.1 22.8
08:15 1017 30.03 846 24.98 9.1 48.3 38 -4.6 23.7
08:20 1017 30.03 846 24.98 8.4 47.1 38 -5.1 22.9
08:25 1017 30.03 846 24.98 8.6 47.4 37 -5.1 22.8
08:30 1017 30.03 846 24.98 8.8 47.8 36 -5.3 22.5
08:35 1017 30.03 846 24.98 9.2 48.6 34 -6 21.2
08:40 1017 30.03 846 24.98 9.8 49.6 31 -6.4 20.4
08:45 1017 30.03 846 24.98 10.5 50.8 31 -5.7 21.7
08:50 1017 30.03 846 24.98 11 51.7 29 -6.4 20.5
08:55 1017 30.03 846 24.98 12.1 53.8 27 -6.5 20.3
09:00 1017 30.03 846 24.98 12.5 54.4 29 -5 23.1
09:05 1017 30.03 846 24.98 11.4 52.6 29 -5.7 21.7
09:10 1017 30.03 846 24.98 11.3 52.3 30 -5.6 21.9
09:15 1017 30.03 846 24.98 11.3 52.3 31 -5.3 22.5
09:20 1016 30 846 24.98 11 51.8 31 -5.2 22.6
09:25 1016 30 846 24.98 11.2 52.2 32 -4.8 23.4
09:30 1016 30 846 24.98 11.2 52.2 31 -5.4 22.3
09:35 1016 30 846 24.98 12 53.5 30 -5.2 22.6
09:40 1016 30 845 24.95 12.7 54.8 31 -4.1 24.6
09:45 1016 30 845 24.95 13 55.4 30 -4.1 24.5
09:50 1016 30 845 24.95 13.3 55.9 28 -4.8 23.4
09:55 1016 30 845 24.95 13.9 57 29 -3.8 25.1
10:00 1016 30 845 24.95 13.7 56.6 29 -3.8 25.1
10:05 1016 30 845 24.95 13.5 56.2 27 -5 23
10:10 1016 30 845 24.95 14 57.1 26 -5 23
10:15 1016 30 845 24.95 14.7 58.4 25 -5.4 22.4
10:20 1016 30 845 24.95 15.2 59.3 25 -4.7 23.5
10:25 1015 29.97 845 24.95 15.4 59.7 24 -5 23
10:30 1015 29.97 845 24.95 15.4 59.7 25 -4.4 24.1
10:35 1015 29.97 844 24.92 15.2 59.3 25 -4.4 24
10:40 1015 29.97 844 24.92 15.1 59.2 26 -4.3 24.2
10:45 1015 29.97 844 24.92 15.1 59.2 26 -4.1 24.7
10:50 1015 29.97 844 24.92 14.7 58.5 28 -3.5 25.7
10:55 1015 29.97 844 24.92 14.4 58 27 -4.1 24.6
11:00 1015 29.97 844 24.92 14.3 57.7 29 -3.6 25.5
11:05 1015 29.97 844 24.92 14.1 57.4 31 -2.9 26.8
11:10 1015 29.97 844 24.92 13.9 56.9 32 -2.5 27.6
11:15 1014 29.94 844 24.92 13.6 56.4 38 -0.6 31
11:20 1014 29.94 843 24.89 13 55.4 39 -0.6 30.9
11:25 1014 29.94 843 24.89 12.8 55 39 -0.9 30.4
11:30 1014 29.94 843 24.89 12.7 54.8 34 -2.9 26.8
11:35 1014 29.94 843 24.89 13 55.3 39 -0.7 30.7
11:40 1014 29.94 843 24.89 12.3 54.1 39 -1.2 29.9
11:45 1014 29.94 843 24.89 12.1 53.7 39 -1.3 29.6
11:50 1014 29.94 843 24.89 12 53.7 37 -2.2 28
11:55 1014 29.94 843 24.89 12.8 55 30 -4.2 24.4
12:00 1014 29.94 843 24.89 13.7 56.7 30 -3.3 26
12:05 1014 29.94 843 24.89 13.9 57 31 -2.7 27.1
12:10 1014 29.94 843 24.89 13.6 56.4 29 -4.2 24.4
12:15 1014 29.94 843 24.89 14 57.1 27 -4.8 23.4
12:20 1014 29.94 843 24.89 14.7 58.5 26 -4.5 23.9
12:25 1014 29.94 843 24.89 15 59.1 26 -4.2 24.5
12:30 1013 29.91 843 24.89 15.3 59.6 31 -1.6 29
12:35 1013 29.91 843 24.89 15.6 60.1 25 -4.4 24.1
12:40 1013 29.91 843 24.89 15.6 60.1 26 -3.5 25.7
12:45 1013 29.91 842 24.86 15.1 59.1 25 -4.6 23.7
12:50 1013 29.91 842 24.86 15.1 59.1 24 -5.5 22.1
12:55 1013 29.91 842 24.86 15.6 60.1 25 -4.2 24.4
13:00 1013 29.91 842 24.86 15.3 59.5 29 -2.7 27.2
13:05 1013 29.91 842 24.86 14.2 57.6 28 -3.9 25
13:10 1013 29.91 842 24.86 14.4 58 28 -4 24.8
13:15 1013 29.91 842 24.86 14.5 58.1 27 -4.2 24.4
13:20 1013 29.91 842 24.86 14.7 58.5 28 -3.4 25.9
13:25 1013 29.91 842 24.86 14.6 58.2 27 -4.4 24.2
13:30 1013 29.91 842 24.86 14.7 58.4 28 -3.5 25.7
13:35 1013 29.91 842 24.86 14.5 58 28 -4 24.8
13:40 1013 29.91 842 24.86 14.6 58.2 28 -3.8 25.2
13:45 1012 29.88 842 24.86 14.4 57.9 28 -3.6 25.6
13:50 1012 29.88 842 24.86 14.1 57.3 30 -3.2 26.3
13:55 1012 29.88 842 24.86 13.8 56.8 28 -4.1 24.5
14:00 1012 29.88 842 24.86 14.3 57.7 28 -3.9 24.9
14:05 1012 29.88 842 24.86 14.5 58.1 27 -4.1 24.6
14:10 1012 29.88 841 24.83 14.4 57.8 29 -3.4 25.9
14:15 1012 29.88 841 24.83 14.3 57.7 29 -3.6 25.5
14:20 1012 29.88 841 24.83 14.3 57.7 28 -3.9 25.1
14:25 1012 29.88 841 24.83 14.4 57.9 29 -3.5 25.7
14:30 1012 29.88 841 24.83 14.2 57.6 29 -3.5 25.7
14:35 1012 29.88 841 24.83 14.2 57.5 29 -3.4 25.8
14:40 1012 29.88 841 24.83 14 57.3 31 -2.8 27
14:45 1012 29.88 841 24.83 13.5 56.3 30 -3.7 25.4
14:50 1012 29.88 841 24.83 13.9 56.9 29 -3.8 25.2
14:55 1012 29.88 841 24.83 14.2 57.6 28 -4 24.8
15:00 1012 29.88 841 24.83 14.2 57.6 28 -3.8 25.1
15:05 1012 29.88 841 24.83 14.5 58.1 27 -4.4 24.1
15:10 1012 29.88 841 24.83 14.8 58.6 26 -4.3 24.2
15:15 1012 29.88 841 24.83 14.2 57.6 29 -3.4 25.9
15:20 1012 29.88 841 24.83 13.7 56.7 29 -4.1 24.6
15:25 1012 29.88 841 24.83 13.9 57.1 30 -3.2 26.3
15:30 1012 29.88 841 24.83 13.6 56.5 30 -3.5 25.7
15:35 1012 29.88 841 24.83 13.8 56.8 28 -4.4 24.1
15:40 1012 29.88 841 24.83 14.3 57.7 27 -4.2 24.5
15:45 1012 29.88 841 24.83 14.3 57.8 28 -4.1 24.6
15:50 1012 29.88 841 24.83 14.1 57.5 32 -2.4 27.6
15:55 1012 29.88 841 24.83 12 53.6 37 -2.1 28.2
16:00 1012 29.88 841 24.83 12 53.7 32 -4.2 24.5
16:05 1012 29.88 841 24.83 13.5 56.2 29 -4.4 24.1
16:10 1012 29.88 841 24.83 14.3 57.8 25 -5.4 22.3
16:15 1011 29.85 841 24.83 15.6 60 25 -4.3 24.3
16:20 1011 29.85 841 24.83 15.2 59.4 25 -4.8 23.4
16:25 1011 29.85 840 24.81 15.5 59.9 22 -5.7 21.7
16:30 1011 29.85 841 24.83 16.3 61.4 21 -5.9 21.4
16:35 1011 29.85 841 24.83 17.1 62.8 20 -6.1 21.1
16:40 1011 29.85 841 24.83 17.5 63.6 21 -5.1 22.9
16:45 1011 29.85 841 24.83 16.9 62.5 23 -4.3 24.2
16:50 1011 29.85 841 24.83 16.4 61.5 23 -4.6 23.7
16:55 1011 29.85 841 24.83 16.4 61.5 23 -4.8 23.4
17:00 1011 29.85 840 24.81 16.3 61.3 23 -4.7 23.5
17:05 1011 29.85 840 24.81 16 60.9 23 -5 22.9
17:10 1011 29.85 840 24.81 16 60.7 23 -5.1 22.8
17:15 1011 29.85 840 24.81 16 60.8 23 -5.3 22.5
17:20 1011 29.85 840 24.81 16.1 61 22 -5.5 22.1
17:25 1011 29.85 840 24.81 16.2 61.2 23 -4.8 23.4
17:30 1011 29.85 840 24.81 15.7 60.3 24 -4.8 23.3
17:35 1011 29.85 840 24.81 15.7 60.2 24 -4.6 23.7
17:40 1011 29.85 840 24.81 16 60.7 22 -5.8 21.5
17:45 1011 29.85 840 24.81 16.3 61.4 22 -5.1 22.8
17:50 1011 29.85 840 24.81 16 60.8 24 -4.5 24
17:55 1011 29.85 840 24.81 15.5 59.9 25 -4.2 24.5
18:00 1011 29.85 840 24.81 15 59 26 -4.3 24.2
18:05 1010 29.83 840 24.81 14.9 58.7 26 -4.5 24
18:10 1010 29.83 840 24.81 14.8 58.6 26 -4.4 24.1
18:15 1010 29.83 840 24.81 14.7 58.5 26 -4.3 24.3
18:20 1010 29.83 840 24.81 14.7 58.4 28 -3.5 25.7
18:25 1010 29.83 839 24.78 14.2 57.5 29 -3.7 25.4
18:30 1010 29.83 839 24.78 14 57.1 29 -3.8 25.1
18:35 1010 29.83 839 24.78 13.9 57 29 -3.8 25.1
18:40 1010 29.83 839 24.78 13.6 56.5 30 -3.4 25.8
18:45 1010 29.83 839 24.78 13.2 55.8 32 -2.9 26.8
18:50 1010 29.83 839 24.78 12.4 54.4 32 -3.7 25.3
18:55 1010 29.83 839 24.78 12.4 54.4 31 -4.3 24.3
19:00 1010 29.83 840 24.81 12.7 54.9 30 -4.2 24.5
19:05 1010 29.83 839 24.78 13 55.4 29 -4.5 23.9
19:10 1010 29.83 839 24.78 13.1 55.5 31 -3.8 25.2
19:15 1010 29.83 839 24.78 12.4 54.4 32 -3.7 25.4
19:20 1010 29.83 839 24.78 12.5 54.4 29 -4.9 23.1
19:25 1010 29.83 839 24.78 13.2 55.8 29 -4.5 23.9
19:30 1010 29.83 839 24.78 13.5 56.3 26 -5.3 22.4
19:35 1010 29.83 839 24.78 14.5 58.2 27 -4.4 24.1
19:40 1010 29.83 839 24.78 14.6 58.3 26 -4.7 23.5
19:45 1010 29.83 839 24.78 15.4 59.7 26 -4.2 24.5
19:50 1010 29.83 839 24.78 15.4 59.6 26 -3.9 25.1
19:55 1010 29.83 839 24.78 15.5 59.9 25 -4.1 24.6
20:00 1010 29.83 839 24.78 15.7 60.3 27 -3.2 26.2
20:05 1009 29.8 839 24.78 15.5 59.9 28 -3.1 26.5
20:10 1009 29.8 838 24.75 15.3 59.5 27 -3.5 25.8
20:15 1009 29.8 838 24.75 15.3 59.5 27 -3.7 25.3
20:20 1009 29.8 838 24.75 15.5 59.9 26 -3.9 24.9
20:25 1009 29.8 838 24.75 15.8 60.4 27 -3.3 26
20:30 1009 29.8 838 24.75 15.5 59.8 28 -2.7 27.2
20:35 1009 29.8 838 24.75 15.1 59.2 29 -2.6 27.4
20:40 1009 29.8 838 24.75 14.7 58.5 31 -2 28.4
20:45 1009 29.8 838 24.75 14.5 58.1 31 -2.1 28.1
20:50 1009 29.8 838 24.75 14.5 58 32 -2.1 28.2
20:55 1008 29.77 838 24.75 14.3 57.7 31 -2.4 27.7
21:00 1008 29.77 837 24.72 14.5 58.1 31 -2.5 27.5
21:05 1008 29.77 837 24.72 14.6 58.3 30 -2.7 27.1
21:10 1008 29.77 837 24.72 14.7 58.5 29 -2.8 26.9
21:15 1008 29.77 837 24.72 14.9 58.7 30 -2.6 27.3
21:20 1008 29.77 837 24.72 14.9 58.9 29 -2.7 27.2
21:25 1008 29.77 837 24.72 14.8 58.6 30 -2.5 27.5
21:30 1008 29.77 837 24.72 14.7 58.5 30 -2.8 27
21:35 1007 29.74 837 24.72 14.8 58.7 29 -2.8 27
21:40 1007 29.74 837 24.72 14.8 58.6 29 -3 26.6
21:45 1007 29.74 837 24.72 14.8 58.6 29 -3 26.5
21:50 1007 29.74 837 24.72 14.7 58.5 29 -3.2 26.3
21:55 1007 29.74 837 24.72 14.7 58.4 29 -3.2 26.2
22:00 1007 29.74 836 24.69 14.6 58.3 28 -3.5 25.7
22:05 1007 29.74 836 24.69 15 58.9 28 -3.4 25.9
22:10 1007 29.74 837 24.72 15.1 59.2 28 -3.3 26.1
22:15 1007 29.74 837 24.72 14.9 58.9 28 -3.1 26.4
22:20 1007 29.74 837 24.72 14.8 58.6 29 -3.1 26.4
22:25 1007 29.74 836 24.69 14.9 58.7 28 -3.3 26.1
22:30 1007 29.74 837 24.72 14.7 58.5 29 -3.3 26.1
22:35 1007 29.74 836 24.69 14.8 58.7 28 -3.3 26
22:40 1007 29.74 836 24.69 14.7 58.5 28 -3.3 26
22:45 1007 29.74 836 24.69 14.6 58.3 29 -3.1 26.5
22:50 1007 29.74 836 24.69 14.5 58 30 -3 26.6
22:55 1007 29.74 836 24.69 14.5 58 29 -3.2 26.3
23:00 1007 29.74 836 24.69 14.5 58 29 -3.3 26.1
23:05 1007 29.74 836 24.69 14.4 57.9 29 -3.2 26.3
23:10 1007 29.74 836 24.69 14.2 57.6 29 -3.3 26.1
23:15 1007 29.74 836 24.69 14.1 57.4 29 -3.4 25.9
23:20 1007 29.74 836 24.69 14.1 57.3 29 -3.8 25.2
23:25 1007 29.74 836 24.69 14.3 57.8 29 -3.3 26
23:30 1007 29.74 836 24.69 14 57.2 30 -3.3 26
23:35 1007 29.74 836 24.69 14.2 57.5 29 -3.6 25.5
23:40 1007 29.74 836 24.69 14.2 57.5 30 -3.2 26.2
23:45 1007 29.74 836 24.69 14 57.3 29 -3.6 25.6
23:50 1007 29.74 836 24.69 14.1 57.5 29 -3.5 25.7
23:55 1007 29.74 836 24.69 14.1 57.4 29 -3.4 25.8
24:00 1007 29.74 836 24.69 14.1 57.3 29 -3.6 25.5